Date String (YYYY-MM-DD hh:mm:ss) UTC,Instrument flags,Ambient pressure (hPa),Sample flow (lpm),Bypass flow (lpm),Sample temperature (°C),Ambient temperature (°C),ASC tube jacket temperature (°C),LED temperature (°C),Box temperature (°C),Sample RH (%),Span deviation,Mass concentration (μg/m³),Mass concentration (μg/m³),Mass concentration (μg/m³)
DateTimeUTC,F1_M11,P_M11,Q1_M11,Q2_M11,T1_M11,T2_M11,T3_M11,T4_M11,T5_M11,U1_M11,ZSPAN_M11,X0_M11,X2_M11,X1_M11
2023-03-08 19:00:00,,0825.3,5.00,0.00,22.2,20.5,00.0,31.0,23.8,13.7,-002.1,0018.05,0013.87,0013.23
2023-03-08 19:01:00,,0825.3,5.00,0.00,22.2,20.4,00.0,30.9,23.8,13.6,-002.3,0018.20,0013.85,0013.21
2023-03-08 19:02:00,,0825.3,5.01,0.00,22.1,20.3,00.0,30.9,23.8,13.7,-002.5,0018.43,0013.82,0013.19
2023-03-08 19:03:00,,0825.2,5.00,0.00,22.1,20.3,00.0,30.9,23.8,13.9,-002.7,0018.34,0013.75,0013.14
2023-03-08 19:04:00,,0825.2,5.00,0.00,22.1,20.2,00.0,30.9,23.7,13.8,-002.5,0018.04,0013.64,0013.07
2023-03-08 19:05:00,,0825.1,5.02,0.00,22.1,20.2,00.0,30.9,23.7,13.8,-002.6,0017.95,0013.60,0013.01
2023-03-08 19:06:00,,0825.1,4.99,0.00,22.0,20.2,00.0,30.9,23.7,13.7,-002.6,0017.74,0013.50,0012.94
2023-03-08 19:07:00,,0825.1,5.00,0.00,22.0,20.2,00.0,30.9,23.6,13.8,-002.5,0017.55,0013.42,0012.89
2023-03-08 19:08:00,,0825.2,4.99,0.00,22.0,20.2,00.0,30.8,23.6,13.8,-002.6,0017.47,0013.33,0012.82
2023-03-08 19:09:00,,0825.2,5.00,0.00,22.0,20.2,00.0,30.8,23.6,13.9,-002.5,0017.05,0013.26,0012.75
2023-03-08 19:10:00,,0825.2,5.00,0.00,22.0,20.1,00.0,30.8,23.6,13.9,-002.5,0017.15,0013.25,0012.71
2023-03-08 19:11:00,,0825.2,5.02,0.00,22.0,20.7,00.0,30.8,23.7,13.9,-002.7,0017.04,0013.27,0012.70
2023-03-08 19:12:00,,0825.1,5.03,0.00,22.1,22.0,00.0,30.8,24.0,13.8,-002.5,0017.28,0013.29,0012.71
2023-03-08 19:13:00,,0825.1,5.04,0.00,22.2,22.9,00.0,30.8,24.2,13.7,-002.4,0017.61,0013.30,0012.69
2023-03-08 19:14:00,,0825.1,4.99,0.00,22.3,22.6,00.0,30.9,24.2,13.6,-002.2,0017.80,0013.31,0012.69
2023-03-08 19:15:00,,0825.1,5.02,0.00,22.3,22.2,00.0,30.9,24.1,13.7,-002.2,0018.16,0013.32,0012.71
2023-03-08 19:16:00,,0825.0,4.99,0.00,22.3,21.7,00.0,30.9,24.1,13.7,-002.3,0018.27,0013.31,0012.71
2023-03-08 19:17:00,,0824.9,5.01,0.00,22.3,21.4,00.0,30.9,24.0,13.7,-002.5,0018.67,0013.35,0012.71
2023-03-08 19:18:00,,0824.9,5.00,0.00,22.3,21.2,00.0,30.9,24.0,13.7,-002.6,0019.17,0013.38,0012.71
2023-03-08 19:19:00,,0824.9,5.00,0.00,22.3,21.0,00.0,30.9,24.0,13.7,-002.7,0019.73,0013.41,0012.72
2023-03-08 19:20:00,,0824.9,5.00,0.00,22.2,20.9,00.0,30.9,24.0,13.6,-002.8,0019.61,0013.42,0012.73
2023-03-08 19:21:00,,0824.9,5.00,0.00,22.2,20.7,00.0,30.9,23.9,13.7,-002.8,0019.57,0013.45,0012.76
2023-03-08 19:22:00,,0824.9,5.00,0.00,22.2,20.5,00.0,30.9,23.8,13.7,-003.0,0019.73,0013.46,0012.80
2023-03-08 19:23:00,,0824.8,5.01,0.00,22.2,20.4,00.0,30.9,23.8,13.7,-002.9,0019.42,0013.45,0012.82
2023-03-08 19:24:00,,0824.7,5.01,0.00,22.1,20.3,00.0,30.9,23.8,13.9,-002.8,0018.90,0013.48,0012.85
2023-03-08 19:25:00,,0824.6,5.00,0.00,22.1,20.2,00.0,30.9,23.8,13.8,-002.7,0018.96,0013.55,0012.87
2023-03-08 19:26:00,,0824.6,5.00,0.00,22.1,20.2,00.0,30.9,23.7,13.9,-002.6,0018.66,0013.57,0012.90
2023-03-08 19:27:00,,0824.6,5.00,0.00,22.1,20.1,00.0,30.9,23.7,13.7,-002.5,0018.74,0013.61,0012.92
2023-03-08 19:28:00,,0824.6,5.00,0.00,22.0,20.1,00.0,30.9,23.6,13.7,-002.3,0018.65,0013.65,0012.95
2023-03-08 19:29:00,,0824.7,5.00,0.00,22.0,20.1,00.0,30.9,23.6,13.8,-002.1,0018.23,0013.65,0012.96
2023-03-08 19:30:00,,0824.7,5.00,0.00,22.0,20.0,00.0,30.8,23.6,13.9,-002.1,0017.58,0013.65,0012.97
2023-03-08 19:31:00,,0824.8,5.02,0.00,21.9,20.0,00.0,30.8,23.5,13.8,-001.9,0017.89,0013.70,0012.98
2023-03-08 19:32:00,,0824.6,5.02,0.00,21.9,20.8,00.0,30.8,23.7,13.8,-001.7,0018.07,0013.76,0013.02
2023-03-08 19:33:00,,0824.6,5.01,0.00,22.1,22.1,00.0,30.8,24.0,13.7,-001.5,0018.01,0013.84,0013.06
2023-03-08 19:34:00,,0824.9,4.99,0.00,22.2,22.4,00.0,30.8,24.1,13.7,-001.5,0018.16,0013.93,0013.12
2023-03-08 19:35:00,,0824.7,5.00,0.00,22.2,21.9,00.0,30.8,24.1,13.6,-001.3,0018.00,0013.95,0013.17
2023-03-08 19:36:00,,0824.5,4.99,0.00,22.2,21.5,00.0,30.9,24.0,13.5,-001.5,0018.30,0013.99,0013.24
2023-03-08 19:37:00,,0824.4,5.00,0.00,22.2,21.2,00.0,30.9,23.9,13.7,-001.6,0018.97,0014.07,0013.31
2023-03-08 19:38:00,,0824.4,4.98,0.00,22.2,21.0,00.0,30.9,23.9,13.7,-001.7,0019.41,0014.12,0013.37
2023-03-08 19:39:00,,0824.5,5.01,0.00,22.2,20.9,00.0,30.9,23.9,13.7,-001.9,0019.50,0014.14,0013.42
2023-03-08 19:40:00,,0824.5,5.00,0.00,22.2,20.8,00.0,30.9,23.8,13.8,-001.9,0020.08,0014.13,0013.40
2023-03-08 19:41:00,,0824.4,5.00,0.00,22.1,20.6,00.0,30.9,23.8,13.9,-002.0,0020.13,0014.10,0013.35
2023-03-08 19:42:00,,0824.4,5.00,0.00,22.1,20.4,00.0,30.9,23.7,13.9,-001.9,0019.73,0013.98,0013.28
2023-03-08 19:43:00,,0824.4,5.02,0.00,22.1,20.3,00.0,30.9,23.7,14.0,-002.0,0019.43,0013.82,0013.16
2023-03-08 19:44:00,,0824.4,5.00,0.00,22.0,20.2,00.0,30.8,23.7,14.1,-002.0,0019.27,0013.67,0013.02
2023-03-08 19:45:00,,0824.4,4.99,0.00,22.0,20.2,00.0,30.8,23.6,14.1,-002.0,0019.16,0013.57,0012.95
2023-03-08 19:46:00,,0824.3,4.99,0.00,22.0,20.2,00.0,30.8,23.6,14.1,-002.2,0019.33,0013.42,0012.78
2023-03-08 19:47:00,,0824.2,5.00,0.00,22.0,20.2,00.0,30.8,23.6,14.2,-002.1,0018.80,0013.26,0012.59
2023-03-08 19:48:00,,0824.3,4.99,0.00,21.9,20.2,00.0,30.8,23.6,14.1,-002.2,0018.12,0013.19,0012.53
2023-03-08 19:49:00,,0824.3,5.01,0.00,21.9,20.3,00.0,30.8,23.6,14.0,-002.1,0017.41,0013.16,0012.51
2023-03-08 19:50:00,,0824.3,4.99,0.00,22.0,21.4,00.0,30.8,23.8,14.0,-002.0,0017.69,0013.13,0012.46
2023-03-08 19:51:00,,0824.3,4.95,0.00,22.1,22.6,00.0,30.8,24.1,13.7,-002.3,0017.86,0013.17,0012.49
2023-03-08 19:52:00,,0824.3,5.00,0.00,22.3,22.9,00.0,30.8,24.3,13.6,-002.4,0017.88,0013.21,0012.57
2023-03-08 19:53:00,,0824.2,5.02,0.00,22.3,22.3,00.0,30.9,24.2,13.6,-002.5,0018.08,0013.31,0012.64
2023-03-08 19:54:00,,0824.3,5.00,0.00,22.3,21.8,00.0,30.9,24.1,13.7,-002.4,0018.61,0013.38,0012.69
2023-03-08 19:55:00,,0824.4,5.01,0.00,22.3,21.5,00.0,30.9,24.0,13.8,-002.5,0018.69,0013.38,0012.71
2023-03-08 19:56:00,,0824.2,4.99,0.00,22.2,21.2,00.0,30.9,23.9,13.8,-002.4,0018.61,0013.32,0012.66
2023-03-08 19:57:00,,0824.2,5.01,0.00,22.2,21.0,00.0,30.9,23.9,13.8,-002.2,0018.75,0013.41,0012.71
2023-03-08 19:58:00,,0824.3,4.99,0.00,22.2,20.9,00.0,30.9,23.9,13.8,-002.4,0019.02,0013.44,0012.75
2023-03-08 19:59:00,,0824.2,5.01,0.00,22.2,20.8,00.0,30.9,23.9,13.9,-002.4,0019.13,0013.40,0012.68
